RH
94 90 87 93 99 96 100 84 96 100 100 97 97 98 92 82 81 86 80 59 41 45 48 54 93 58 64 48 46 64 54 38 55 77 47 47 51 58 56 59 51 42 37 31
97 89 88 89 98 97 95 90 99 100 99 98 97 90 90 86 86 89 84 73 41 40 43 52 83 54 44 59 54 50 42 44 60 60 53 43 54 52 49 40 38 42 43 34
97 90 88 89 98 98 100 91 98 100 100 99 95 94 93 94 84 77 83 74 52 41 44 47 65 66 59 62 54 51 44 44 39 50 41 40 54 49 44 46 50 41 38 30
98 94 88 91 96 100 100 72 81 88 98 95 94 90 87 88 94 88 92 82 54 44 46 66 62 63 68 65 60 58 51 47 42 41 43 38 42 48 45 47 42 44 35 35
99 92 89 90 94 100 100 76 80 93 81 85 91 95 88 89 83 86 87 92 56 44 43 58 67 66 61 67 59 60 48 51 43 43 46 43 44 39 41 44 42 38 33 33
96 90 92 94 97 100 98 90 70 73 54 60 94 92 92 92 78 89 70 67 57 56 46 50 47 49 51 50 58 60 51 50 47 50 41 45 51 43 42 36 33 32 39 30
99 86 95 96 100 100 100 78 78 74 55 57 76 73 88 94 91 84 60 59 53 62 54 54 53 50 52 47 48 44 52 46 44 50 42 83 37 37 32 37 33 30 31 32
99 96 96 98 99 99 100 99 78 82 64 56 59 68 83 91 94 82 69 75 68 49 52 57 76 83 86 78 65 48 66 56 60 52 47 38 34 42 40 45 40 36 36 36
99 100 98 99 98 99 100 99 94 80 66 52 61 61 76 87 95 89 83 84 66 63 67 76 98 99 90 79 92 56 61 84 74 68 61 52 33 40 36 34 38 38 36 43
100 100 97 100 99 100 100 99 93 86 73 63 58 53 57 60 89 94 86 77 86 84 84 88 90 91 60 77 90 85 61 72 75 83 90 37 39 41 42 41 41 48 46 49
100 100 98 99 99 100 100 98 85 89 78 72 66 62 55 55 62 86 88 78 85 93 90 91 73 82 65 52 54 67 62 66 75 76 63 59 45 45 41 48 58 57 56 56
100 100 100 99 98 99 100 100 95 97 100 82 80 69 63 60 50 65 88 79 67 79 92 83 73 62 66 54 54 55 54 48 42 42 43 56 59 55 55 57 57 58 56 55
100 100 100 99 98 99 100 100 97 100 86 92 86 83 80 72 55 55 61 79 73 66 60 73 73 66 58 58 57 56 55 55 49 52 57 58 61 63 61 57 51 50 48 48
100 100 100 100 99 100 100 100 99 87 75 83 87 88 83 79 66 50 58 53 53 56 57 71 72 65 69 63 57 52 52 54 55 64 64 61 62 60 54 53 51 51 53 54
100 100 100 100 97 99 100 100 100 93 85 85 91 94 91 78 72 68 63 59 57 64 73 73 76 75 76 80 67 61 56 51 49 44 48 47 52 64 58 56 57 56 54 59
100 100 100 100 93 100 100 100 99 100 92 87 97 96 94 82 76 71 69 65 62 68 80 85 89 86 70 79 68 53 59 60 54 47 57 60 62 63 60 56 58 57 55 49
100 100 100 100 99 100 100 97 99 99 92 85 99 99 97 87 82 80 79 76 75 73 90 84 82 84 74 69 66 48 64 64 60 59 59 76 70 69 62 56 58 55 44 38
100 100 99 100 100 100 100 96 100 100 88 88 100 100 98 93 97 94 90 93 88 91 93 91 78 89 76 79 60 63 74 75 70 72 62 65 63 64 61 55 51 44 36 35
100 99 100 100 100 94 98 99 97 86 83 94 94 100 100 98 100 95 89 87 95 96 86 84 82 80 93 72 62 67 74 68 71 68 63 65 62 60 58 55 42 35 37 39
100 98 99 96 93 93 92 94 86 84 87 74 90 92 100 94 96 97 89 94 98 100 98 98 98 90 72 65 60 61 64 63 65 69 82 71 66 60 58 38 37 40 42 43
100 97 86 94 97 80 69 91 89 90 99 93 97 89 94 93 91 92 91 96 97 100 89 94 90 92 78 79 67 64 61 63 64 60 58 56 49 45 36 39 40 41 42 46
93 77 99 97 75 73 85 93 99 96 91 99 93 95 89 88 74 86 86 95 88 92 85 95 92 74 76 91 81 72 71 70 68 62 55 53 35 36 36 37 40 41 42 44
88 91 87 83 95 97 92 98 94 98 99 100 100 100 90 80 75 88 80 88 88 85 95 87 78 74 77 88 86 80 74 73 66 62 40 36 35 39 41 42 45 48 50 51
97 100 100 98 99 90 87 82 90 82 98 100 98 99 94 91 88 81 87 84 80 88 92 81 62 72 76 80 88 80 74 47 41 38 38 41 45 48 51 53 54 57 59 59
100 98 97 100 96 99 94 94 96 99 100 86 93 94 89 93 89 80 86 96 90 78 75 70 72 73 77 81 89 82 58 44 42 42 45 49 51 52 52 54 58 63 66 66
100 99 96 98 96 98 99 100 100 99 90 66 68 94 92 97 88 92 92 84 85 74 83 68 67 70 84 89 87 78 53 47 46 46 44 43 45 46 49 58 64 70 70 68
99 96 95 89 94 94 96 96 99 98 82 90 89 86 88 92 96 94 80 85 77 80 70 64 61 51 61 80 74 52 44 41 43 46 48 49 51 55 61 64 70 71 70 69
Wind_Speed
21 19 16 16 14 14 13 5 3 7 29 6 4 5 5 6 11 20 12 9 9 15 18 14 8 15 9 26 12 10 8 5 5 5 2 10 10 12 11 4 5 2 3 2
22 17 15 16 16 15 10 5 5 8 32 4 6 6 8 9 8 12 10 10 12 13 14 10 10 15 16 24 17 11 11 7 8 6 3 2 6 11 15 11 2 10 8 3
21 16 14 18 17 17 15 6 3 5 20 6 2 8 8 11 17 10 12 10 11 15 14 10 12 10 9 26 23 23 1 4 11 10 7 11 12 19 17 18 11 10 11 7
20 15 13 18 17 17 16 9 4 7 5 10 12 6 4 8 6 7 12 3 13 17 12 12 12 13 10 16 25 12 4 4 7 4 3 15 19 19 21 22 22 14 15 17
20 15 13 17 19 17 20 6 4 4 4 13 14 13 10 15 10 7 7 8 16 17 15 14 14 11 10 9 17 17 10 3 3 2 2 8 11 19 21 24 22 24 18 16
20 15 13 18 22 20 15 11 9 2 3 5 5 4 5 9 11 8 7 15 16 15 12 9 14 18 11 9 14 18 12 6 3 3 3 4 7 18 19 20 21 21 20 20
22 17 14 19 24 24 21 9 6 5 5 6 4 3 6 5 10 2 1 17 16 4 7 15 15 10 11 13 7 12 12 7 1 1 5 3 2 2 16 22 18 20 17 5
23 17 14 19 24 24 22 19 9 4 4 2 3 5 3 4 5 4 3 4 8 15 6 9 6 2 4 3 5 3 3 2 3 3 8 6 4 5 7 12 14 15 16 8
22 17 15 17 23 22 22 20 15 7 3 2 1 4 6 3 2 2 3 8 11 4 2 3 3 4 5 5 2 3 7 2 1 2 2 5 2 3 6 6 7 13 15 16
19 18 14 16 23 22 20 15 17 10 4 4 4 3 7 7 4 3 2 2 2 5 1 2 2 2 1 9 9 6 4 4 10 4 3 6 1 5 7 6 0 12 17 21
21 16 12 16 22 22 19 17 15 16 5 5 5 4 3 6 6 5 7 4 1 1 3 3 3 2 5 4 7 10 9 7 4 4 6 9 6 5 6 4 12 17 19 17
19 18 13 17 22 23 19 15 16 15 7 3 3 3 5 6 7 10 16 1 6 7 3 1 2 3 2 5 5 2 7 4 3 7 3 2 0 2 1 11 20 13 19 16
21 20 13 19 21 23 19 18 17 14 6 3 4 3 4 5 6 15 6 5 10 7 7 4 2 2 3 5 4 4 2 3 2 4 2 1 2 7 12 16 21 20 18 17
20 19 15 20 22 24 19 19 19 15 5 2 2 4 3 2 5 13 7 9 15 13 9 2 2 2 1 2 2 1 1 9 6 1 1 5 5 11 21 22 21 20 17 14
23 17 16 21 23 23 16 18 16 21 4 3 3 4 2 3 4 6 8 14 15 7 3 2 2 3 4 1 1 3 7 6 5 3 16 3 18 19 22 22 20 16 16 15
25 18 18 21 24 20 15 8 17 24 11 4 3 3 3 7 9 11 11 10 7 5 3 3 3 2 2 3 3 2 10 9 6 3 16 6 21 23 20 19 17 15 13 10
26 19 22 23 25 20 14 5 8 22 17 4 3 2 5 8 6 4 5 5 4 3 4 2 3 3 3 2 4 4 14 12 8 12 20 12 21 17 20 17 17 14 12 9
26 21 23 24 20 19 10 3 14 23 8 5 3 1 3 7 3 3 2 2 3 5 3 3 2 4 1 4 7 7 14 13 13 17 9 14 23 25 21 17 16 14 10 7
27 28 27 18 16 9 9 12 13 8 5 5 3 5 4 8 3 4 3 2 2 1 1 1 3 3 5 6 10 18 24 20 21 19 12 21 26 25 21 18 17 12 9 7
37 34 12 6 13 16 16 5 7 5 4 3 2 4 3 4 2 2 2 3 1 1 1 1 2 4 10 9 11 19 25 20 27 25 21 25 24 22 20 18 13 9 7 6
38 12 6 18 27 10 3 2 2 2 1 4 5 5 4 4 2 3 0 2 0 3 2 2 2 4 3 11 14 21 27 21 25 24 26 26 22 23 20 15 11 8 6 5
18 16 25 24 6 3 4 2 1 4 5 6 5 6 7 5 4 3 2 2 1 3 2 2 3 3 0 7 14 21 26 23 26 21 21 19 20 17 14 11 9 7 5 4
36 16 8 7 3 3 8 9 5 4 6 11 9 5 6 5 4 4 2 3 2 5 3 4 4 1 5 12 18 23 22 25 20 21 23 22 18 14 11 9 7 4 3 4
5 5 8 6 6 7 5 4 4 5 10 23 16 7 3 4 2 3 4 2 3 3 3 5 1 5 12 16 20 26 27 26 27 25 21 17 14 12 10 7 5 3 3 4
4 5 5 4 4 3 3 8 9 7 24 26 13 8 5 3 4 2 4 4 4 5 4 2 2 13 15 21 26 32 27 27 23 20 16 14 11 8 6 5 5 5 5 5
3 3 3 5 3 2 4 5 7 21 27 21 6 4 3 2 5 5 6 7 6 3 2 4 15 17 17 25 31 31 26 23 18 14 11 8 6 6 6 5 5 4 4 5
2 2 5 4 3 5 6 9 12 23 19 2 3 5 3 5 3 5 4 5 1 3 7 16 24 25 26 28 28 25 21 16 13 10 7 6 7 7 5 4 4 4 5 5
Wind_Direction
237 253 263 242 236 233 239 189 228 205 165 157 196 220 206 222 226 188 203 251 194 191 186 185 193 201 208 195 198 189 229 210 146 153 67 181 173 171 186 204 181 242 339 122
234 249 261 233 228 223 196 196 181 198 168 204 203 224 234 232 248 178 187 211 193 177 180 181 215 209 210 188 189 196 184 188 138 144 142 125 198 190 203 224 318 204 215 170
228 242 261 226 221 219 203 180 167 149 212 247 250 222 249 237 216 218 217 183 178 159 178 215 190 222 172 189 197 208 231 201 216 197 197 164 193 201 208 201 222 213 225 228
226 239 258 223 217 212 204 197 217 181 188 232 236 226 259 263 175 216 190 192 180 173 176 196 187 173 155 188 205 206 243 243 210 234 157 187 191 195 200 210 219 225 240 232
222 236 256 224 214 208 209 196 192 193 256 214 223 225 232 208 223 178 203 234 189 186 179 195 182 168 177 174 202 205 225 220 185 168 176 211 210 218 212 216 224 232 247 248
218 231 251 224 212 207 208 220 232 201 219 189 189 206 214 208 179 223 255 201 180 193 197 182 186 173 155 181 184 193 206 218 208 214 123 160 248 223 213 220 224 224 232 243
218 228 244 223 213 211 214 207 187 193 256 217 202 233 220 203 171 160 49 170 169 161 148 125 114 140 94 92 67 199 191 207 215 119 140 240 290 5 225 218 226 224 241 230
208 222 244 224 213 211 220 227 218 215 260 239 218 156 159 99 67 57 75 46 138 144 156 128 109 61 54 29 47 58 110 131 159 198 214 308 231 195 169 187 237 221 228 175
205 217 240 224 206 209 218 227 222 228 280 234 13 132 181 142 130 89 39 109 126 119 68 97 138 175 134 167 179 40 106 208 226 162 248 234 40 156 166 166 256 182 175 155
235 218 236 220 201 206 213 224 217 212 233 264 181 205 182 153 112 80 113 139 87 45 106 88 136 148 122 158 165 154 143 151 210 157 230 283 121 136 155 186 68 149 156 151
206 214 235 216 200 203 210 224 213 205 229 271 224 222 185 148 159 146 159 129 16 25 78 157 152 167 187 155 153 167 173 163 183 177 219 257 141 134 205 103 123 135 134 132
206 220 230 210 200 199 207 221 207 214 235 264 209 187 187 185 170 141 168 118 153 172 118 166 120 153 168 165 181 231 184 194 193 208 207 31 312 333 173 147 138 134 130 132
200 214 229 205 199 195 205 212 193 185 185 194 172 159 137 134 168 164 149 182 183 180 158 155 153 193 184 170 205 123 202 169 184 179 170 325 186 136 137 140 136 138 138 140
189 214 221 201 196 195 201 211 190 187 168 168 158 164 156 115 155 183 198 186 169 156 151 139 153 157 218 171 93 180 97 156 152 107 139 129 173 158 148 141 140 142 144 149
189 211 212 196 193 195 204 215 204 197 188 135 139 137 88 124 126 160 173 160 149 144 129 126 130 114 146 70 126 193 190 159 186 200 178 175 173 162 155 149 148 152 158 157
190 207 200 191 185 186 188 215 230 205 189 135 150 171 139 118 119 128 135 139 129 117 109 107 113 150 208 168 198 177 184 187 176 144 161 148 155 160 159 156 157 158 161 163
188 199 188 182 183 186 191 216 193 188 174 154 98 151 163 152 135 114 99 99 93 87 103 96 126 130 176 180 205 175 186 180 172 157 148 122 159 164 166 167 161 162 165 174
187 183 172 175 183 200 209 187 170 166 153 154 117 154 149 160 119 105 91 82 78 43 99 122 151 136 163 239 223 175 168 164 158 161 179 173 166 160 161 165 165 168 175 193
172 160 159 165 185 180 164 149 141 157 175 132 123 145 181 159 111 109 87 92 86 42 116 141 197 172 218 218 194 183 179 171 172 167 153 158 160 160 163 168 169 176 187 202
154 153 154 160 156 146 140 128 166 189 171 134 106 126 127 141 115 70 91 24 105 150 86 148 228 248 248 231 220 201 181 179 171 150 148 157 160 166 169 168 171 180 193 204
153 149 140 142 141 139 122 102 134 161 324 173 130 140 128 145 127 125 332 139 63 174 168 225 260 266 243 226 200 189 186 180 180 185 172 171 174 167 166 169 172 179 189 197
156 141 131 134 144 116 130 168 137 214 205 152 148 136 125 126 122 104 56 111 166 183 129 213 249 254 282 161 164 168 174 175 174 172 165 164 159 159 160 161 162 168 185 214
131 129 145 150 145 168 186 182 192 199 172 169 157 131 125 118 97 82 122 134 152 125 190 234 240 59 153 154 152 151 161 161 168 160 154 153 154 152 152 151 153 169 209 235
105 139 142 197 187 210 182 181 164 155 154 146 132 105 107 114 97 141 121 99 154 181 233 234 196 178 160 160 155 151 150 151 147 147 146 146 149 149 152 160 172 202 234 246
139 152 181 183 103 61 130 129 121 125 148 141 114 88 102 106 120 87 124 157 214 218 231 231 180 159 157 158 157 155 152 153 151 150 152 153 155 161 172 194 217 230 237 247
84 87 102 97 102 144 156 145 135 147 154 147 100 117 114 134 142 157 195 178 218 216 199 167 147 143 145 152 154 154 155 157 157 156 158 166 177 191 201 211 223 239 264 274
100 95 111 140 102 153 165 143 150 162 163 122 127 136 137 118 140 192 194 210 211 157 157 150 147 140 133 137 145 148 151 153 153 157 169 193 207 204 200 212 237 257 274 275